{"data":{"norad_id":61190,"intl_designator":"2024-169B","name":"JILIN-01 KUANFU 02B 2","alt_names":[],"object_type":"PAYLOAD","status":"ACTIVE","operator":null,"country":"PRC","launch_date":"2024-09-20","launch_site_code":"TAISC","launch_vehicle":null,"mission":null,"orbit_class":"UNKNOWN","rcs_meters":null,"size_class":null,"mass_kg":null,"dimensions":null,"purposes":[],"wikipedia_slug":null,"has_3d_model":false,"image_url":null,"decayed_at":null,"tle_current":{"epoch":"2026-05-25T05:09:02.984832Z","epoch_age_seconds":66983,"freshness":"FRESH","line1":"1 61190U 24169B   26145.21461788  .00003207  00000+0  20868-3 0  9992","line2":"2 61190  97.5552 234.4789 0008075  95.2384 264.9766 15.08652770 92361","mean_motion":15.0865277,"eccentricity":0.0008075,"inclination_deg":97.5552,"raan_deg":234.4789,"arg_perigee_deg":95.2384,"mean_anomaly_deg":264.9766,"bstar":0.00020868,"rev_number":9236,"period_min":95.44939886996,"perigee_km":534.72908477297,"apogee_km":545.90238594057,"semimajor_km":6918.4527353568,"source":"CELESTRAK","updated_at":"2026-05-25T13:38:02.311736Z"}}}